RH
58 60 61 61 63 61 58 55 54 52 49 47 44 40 38 35 33 32 33 32 31 29 27 24 23 26 28 30 33 41 49 53 56 50 46 47 55 66 76 73 71 81 81
64 63 62 62 63 60 56 54 53 50 50 48 48 45 42 40 38 36 34 33 34 31 29 29 24 22 23 26 27 31 38 43 45 46 43 49 54 66 75 72 77 84 84
63 63 62 58 54 53 52 53 52 51 51 52 52 50 47 42 40 37 36 36 37 37 34 32 30 24 22 19 21 25 32 38 40 41 43 51 58 60 72 78 79 80 82
57 55 53 52 50 48 48 49 51 52 52 53 51 47 43 43 43 44 44 44 46 46 42 38 33 29 25 21 21 22 23 28 39 44 42 53 55 60 66 76 76 73 82
45 45 45 46 46 47 50 50 49 48 47 47 44 43 42 40 42 44 47 47 46 46 45 42 45 43 37 32 28 26 25 25 27 34 47 48 51 63 66 73 78 82 84
42 43 43 45 47 47 47 47 46 44 39 33 32 31 31 35 40 43 46 44 42 45 44 48 52 51 42 37 41 39 32 29 29 33 31 39 46 71 73 81 85 85 80
47 47 46 44 39 35 34 33 29 26 26 25 25 31 36 40 45 52 58 61 63 66 69 63 57 55 47 38 38 42 40 35 32 30 29 39 48 70 79 88 88 82 80
47 42 38 33 28 27 27 28 31 33 35 46 59 67 77 77 71 74 80 79 75 74 73 73 64 61 52 41 38 43 42 39 34 32 30 47 59 73 84 91 86 84 70
40 36 32 31 33 35 34 36 41 57 69 73 88 91 86 84 82 76 70 69 68 65 65 64 64 64 55 50 53 57 58 46 42 35 38 54 64 75 88 90 87 75 59
33 34 36 37 36 39 49 68 73 80 92 92 89 85 79 76 75 74 74 75 71 71 69 63 64 57 55 69 66 62 66 62 58 43 50 63 76 86 90 88 73 50 30
36 34 37 49 66 77 78 84 97 96 94 96 92 83 71 65 64 71 75 80 79 74 70 67 57 58 72 72 81 87 82 85 75 54 66 80 89 81 87 65 40 33 27
40 58 80 87 91 94 98 99 97 96 86 76 71 67 62 62 65 72 79 83 83 78 70 60 66 82 90 97 92 90 93 99 93 93 83 88 71 64 54 38 32 29 28
86 95 98 98 99 99 98 97 97 77 69 64 64 63 61 67 76 83 83 81 84 78 67 65 79 99 98 96 99 93 96 96 92 81 74 64 54 50 33 28 26 25 26
98 99 99 98 96 96 94 91 71 65 66 64 67 68 68 79 87 88 79 77 77 70 60 77 98 98 98 95 87 81 75 66 67 65 60 53 44 32 33 31 28 25 25
98 96 91 85 82 79 71 65 65 68 69 72 80 81 79 89 92 85 73 68 69 67 76 96 98 93 84 72 71 75 73 69 70 58 49 36 34 35 33 31 28 28 27
92 90 83 74 72 68 64 67 75 77 81 84 86 84 90 97 84 76 71 65 59 76 91 98 95 85 74 64 60 62 66 61 58 49 38 36 36 35 32 30 27 26 28
91 74 75 70 63 66 76 84 89 94 91 89 90 93 98 84 77 78 73 71 69 84 95 97 93 81 74 70 70 71 69 60 49 43 42 41 37 33 29 27 27 25 31
77 80 69 63 69 82 89 93 97 98 96 92 94 99 89 76 83 80 78 76 82 91 98 97 94 80 75 72 68 70 68 59 53 49 45 42 36 33 31 29 29 26 27
86 85 69 69 82 88 93 96 98 98 97 94 98 97 78 82 85 82 79 82 91 96 97 98 88 82 75 68 67 66 69 62 55 50 46 41 37 36 34 31 29 29 30
92 91 72 75 85 88 90 92 94 94 94 97 98 81 77 82 84 81 79 85 97 98 97 95 88 82 79 78 79 76 72 63 58 55 47 42 42 39 32 32 33 31 34
94 87 79 82 83 86 85 89 91 95 97 97 88 74 78 79 74 75 85 93 97 98 98 93 85 82 83 82 80 75 67 61 59 54 48 46 43 38 36 35 36 34 37
88 84 84 88 83 83 85 89 92 90 83 78 77 81 80 77 75 80 87 94 98 98 97 89 76 75 76 77 77 73 68 62 55 51 47 45 44 40 35 33 32 35 40
79 81 86 88 83 80 86 89 86 69 72 80 85 85 80 75 80 81 90 95 97 98 93 86 79 76 78 80 77 73 64 58 52 47 44 42 41 38 36 32 32 37 50
75 76 86 87 83 81 84 87 81 67 72 81 83 80 75 69 70 80 85 93 94 98 94 86 84 83 82 80 78 69 60 52 44 39 38 38 37 33 32 34 37 40 56
68 69 75 81 81 81 82 85 78 65 67 73 75 72 66 65 69 79 83 90 90 93 91 87 85 82 79 75 71 64 56 47 44 41 41 39 35 32 27 31 42 57 74
65 65 68 72 77 81 85 84 83 67 63 65 67 68 65 63 62 71 83 87 93 95 89 87 83 81 78 70 62 56 52 47 42 40 40 38 34 31 30 33 55 84 90